Location: Fayetteville
(35.0530°N, 78.8790°W)
Time: 23:18:56
(UTC-04:00)

ISS - Visible Passes

Search period start: 30 July 2014 00:00
Search period end: 09 August 2014 00:00
Orbit: 411 x 419 km, 51.6° (Epoch: 31 July)

Date Brightness Start Highest point End Pass type
(mag) Time Alt. Az. Time Alt. Az. Time Alt. Az.
31 Jul -0.6 05:23:04 10° NNW 05:25:48 22° NNE 05:28:31 10° E visible
01 Aug -0.1 04:34:44 10° N 04:36:46 15° NNE 04:38:48 10° ENE visible
01 Aug -1.8 21:14:45 10° S 21:17:03 19° SE 21:17:03 19° SE visible
02 Aug 0.3 03:46:59 10° NNE 03:47:40 10° NNE 03:48:21 10° NE visible
02 Aug -2.7 05:21:38 10° NW 05:24:57 61° NE 05:28:16 10° ESE visible
02 Aug -2.9 22:01:28 10° WSW 22:04:46 64° NW 22:07:59 11° NE visible
03 Aug -1.4 04:32:58 10° NNW 04:36:03 33° NE 04:39:07 10° ESE visible
03 Aug -3.4 21:12:39 10° SW 21:15:55 64° SE 21:19:14 10° NE visible
03 Aug -0.1 22:50:52 10° WNW 22:52:55 15° NNW 22:54:59 10° N visible
04 Aug -0.6 03:46:03 18° N 03:47:03 21° NNE 03:49:39 10° E visible
04 Aug -2.8 05:20:43 10° WNW 05:23:52 38° SW 05:26:59 10° SSE visible
04 Aug -0.7 22:01:09 10° W 22:03:52 23° NNW 22:06:37 10° NNE visible
05 Aug -1.4 04:37:07 22° SE 04:37:07 22° SE 04:38:24 10° SE visible
05 Aug -1.7 21:11:46 10° WSW 21:14:53 38° NW 21:18:02 10° NNE visible
06 Aug 0.1 22:02:01 10° NW 22:03:11 11° NNW 22:04:21 10° N visible
07 Aug -0.2 21:11:50 10° WNW 21:14:03 17° NNW 21:16:16 10° NNE visible
